Time,TemperatureF,DewpointF,PressureIn,WindDirection,WindDirectionDegrees,WindSpeedMPH,WindSpeedGustMPH,Humidity,HourlyPrecipIn,Conditions,Clouds,dailyrainin,SolarRadiationWatts/m^2,SoftwareType,DateUTC
2013-11-12 00:03:00,60.8,57.6,30.16,NE,51,0.0,0.0,89,0.00,,,0.00,0.0,meteobridge,2013-11-12 06:03:00,
2013-11-12 00:08:00,61.0,57.7,30.16,NE,49,0.0,0.0,89,0.00,,,0.00,0.0,meteobridge,2013-11-12 06:08:00,
2013-11-12 00:14:00,61.2,57.6,30.16,NE,39,0.0,2.0,88,0.00,,,0.00,0.0,meteobridge,2013-11-12 06:14:00,
2013-11-12 00:19:00,61.3,57.4,30.16,NE,38,0.0,0.0,87,0.00,,,0.00,0.0,meteobridge,2013-11-12 06:19:00,
2013-11-12 00:24:00,61.3,57.4,30.16,NE,38,0.0,0.0,87,0.00,,,0.00,0.0,meteobridge,2013-11-12 06:24:00,
2013-11-12 00:30:00,61.2,57.0,30.15,NE,38,0.0,0.0,86,0.00,,,0.00,0.0,meteobridge,2013-11-12 06:30:00,
2013-11-12 00:35:00,61.2,57.0,30.15,NE,38,0.0,0.0,86,0.00,,,0.00,0.0,meteobridge,2013-11-12 06:35:00,
2013-11-12 00:40:00,61.0,56.8,30.15,NE,38,0.0,0.0,86,0.00,,,0.00,0.0,meteobridge,2013-11-12 06:40:00,
2013-11-12 00:45:00,60.8,56.7,30.15,NNE,33,0.0,0.9,86,0.00,,,0.00,0.0,meteobridge,2013-11-12 06:45:00,
2013-11-12 00:51:00,60.6,56.5,30.15,NNE,32,0.0,0.0,86,0.00,,,0.00,0.0,meteobridge,2013-11-12 06:51:00,
2013-11-12 00:56:00,60.6,56.5,30.15,NNE,31,0.0,2.0,86,0.00,,,0.00,0.0,meteobridge,2013-11-12 06:56:00,
2013-11-12 01:01:00,60.6,56.5,30.16,NNE,30,0.0,0.0,86,0.00,,,0.00,0.0,meteobridge,2013-11-12 07:01:00,
2013-11-12 01:06:00,60.8,56.3,30.16,NNE,16,0.9,2.9,85,0.00,,,0.00,0.0,meteobridge,2013-11-12 07:06:00,
2013-11-12 01:11:00,61.0,56.5,30.16,NNE,28,0.0,2.9,85,0.00,,,0.00,0.0,meteobridge,2013-11-12 07:11:00,
2013-11-12 01:16:00,60.8,56.3,30.16,NNE,20,2.9,4.0,85,0.00,,,0.00,0.0,meteobridge,2013-11-12 07:16:00,
2013-11-12 01:21:00,60.8,56.3,30.16,NNE,29,4.0,4.9,85,0.00,,,0.00,0.0,meteobridge,2013-11-12 07:21:00,
2013-11-12 01:26:00,60.6,56.1,30.16,North,10,4.9,4.9,85,0.00,,,0.00,0.0,meteobridge,2013-11-12 07:26:00,
2013-11-12 01:31:00,60.4,55.9,30.17,NNE,17,4.0,4.0,85,0.00,,,0.00,0.0,meteobridge,2013-11-12 07:31:00,
2013-11-12 01:36:00,60.3,56.1,30.17,NNE,22,2.0,4.0,86,0.00,,,0.00,0.0,meteobridge,2013-11-12 07:36:00,
2013-11-12 01:41:00,60.4,56.3,30.17,NNE,16,2.9,4.0,86,0.00,,,0.00,0.0,meteobridge,2013-11-12 07:41:00,
2013-11-12 01:46:00,60.4,56.5,30.17,NNE,22,2.0,4.9,87,0.00,,,0.00,0.0,meteobridge,2013-11-12 07:46:00,
2013-11-12 01:51:00,60.4,56.5,30.17,NE,39,4.0,4.0,87,0.00,,,0.00,0.0,meteobridge,2013-11-12 07:51:00,
2013-11-12 01:56:00,60.4,56.3,30.17,NNE,26,2.9,6.0,86,0.00,,,0.00,0.0,meteobridge,2013-11-12 07:56:00,
2013-11-12 02:01:00,60.3,56.1,30.17,NNE,19,2.0,4.0,86,0.00,,,0.00,0.0,meteobridge,2013-11-12 08:01:00,
2013-11-12 02:06:00,60.3,56.1,30.17,NNE,28,2.9,4.0,86,0.00,,,0.00,0.0,meteobridge,2013-11-12 08:06:00,
2013-11-12 02:11:00,60.1,55.9,30.17,NNE,16,2.9,4.9,86,0.00,,,0.00,0.0,meteobridge,2013-11-12 08:11:00,
2013-11-12 02:17:00,59.9,55.8,30.17,NNE,13,4.9,4.9,86,0.00,,,0.00,0.0,meteobridge,2013-11-12 08:17:00,
2013-11-12 02:22:00,59.7,55.6,30.17,NNE,19,0.9,6.0,86,0.00,,,0.00,0.0,meteobridge,2013-11-12 08:22:00,
2013-11-12 02:27:00,59.5,55.4,30.17,NNE,22,2.9,4.9,86,0.00,,,0.00,0.0,meteobridge,2013-11-12 08:27:00,
2013-11-12 02:32:00,59.2,55.4,30.17,NNE,13,2.0,4.9,87,0.00,,,0.00,0.0,meteobridge,2013-11-12 08:32:00,
2013-11-12 02:37:00,59.0,55.2,30.17,NNE,15,2.9,4.0,87,0.00,,,0.00,0.0,meteobridge,2013-11-12 08:37:00,
2013-11-12 02:42:00,58.8,55.2,30.17,NNE,24,0.9,2.9,88,0.00,,,0.00,0.0,meteobridge,2013-11-12 08:42:00,
2013-11-12 02:47:00,58.8,55.2,30.17,NNE,20,2.0,4.0,88,0.00,,,0.00,0.0,meteobridge,2013-11-12 08:47:00,
2013-11-12 02:52:00,58.6,55.0,30.17,NNE,25,0.0,4.0,88,0.00,,,0.00,0.0,meteobridge,2013-11-12 08:52:00,
2013-11-12 02:57:00,58.6,55.0,30.17,NNE,26,0.9,2.9,88,0.00,,,0.00,0.0,meteobridge,2013-11-12 08:57:00,
2013-11-12 03:02:00,58.6,55.0,30.17,NNE,26,0.9,2.0,88,0.00,,,0.00,0.0,meteobridge,2013-11-12 09:02:00,
2013-11-12 03:07:00,58.6,55.0,30.17,NNE,32,0.9,2.0,88,0.00,,,0.00,0.0,meteobridge,2013-11-12 09:07:00,
2013-11-12 03:12:00,58.6,55.0,30.17,NNE,26,0.0,2.0,88,0.00,,,0.00,0.0,meteobridge,2013-11-12 09:12:00,
2013-11-12 03:17:00,58.6,55.0,30.17,NNE,16,2.0,2.9,88,0.00,,,0.00,0.0,meteobridge,2013-11-12 09:17:00,
2013-11-12 03:22:00,58.6,55.0,30.17,NE,37,2.0,2.9,88,0.00,,,0.00,0.0,meteobridge,2013-11-12 09:22:00,
2013-11-12 03:27:00,58.6,55.0,30.17,NNE,28,0.0,2.0,88,0.00,,,0.00,0.0,meteobridge,2013-11-12 09:27:00,
2013-11-12 03:32:00,58.5,54.9,30.17,NNE,28,0.0,0.0,88,0.00,,,0.00,0.0,meteobridge,2013-11-12 09:32:00,
2013-11-12 03:37:00,58.5,55.2,30.17,NE,49,0.0,0.9,89,0.00,,,0.00,0.0,meteobridge,2013-11-12 09:37:00,
2013-11-12 03:42:00,58.3,55.0,30.17,ENE,59,0.0,0.9,89,0.00,,,0.00,0.0,meteobridge,2013-11-12 09:42:00,
2013-11-12 03:47:00,58.1,54.9,30.18,ENE,59,0.0,0.0,89,0.00,,,0.00,0.0,meteobridge,2013-11-12 09:47:00,
2013-11-12 03:52:00,57.9,54.7,30.18,NNE,27,0.9,2.9,89,0.00,,,0.00,0.0,meteobridge,2013-11-12 09:52:00,
2013-11-12 03:57:00,57.9,54.3,30.18,NNE,24,0.0,2.0,88,0.00,,,0.00,0.0,meteobridge,2013-11-12 09:57:00,
2013-11-12 04:02:00,57.7,54.5,30.18,NNE,24,0.9,0.9,89,0.00,,,0.00,0.0,meteobridge,2013-11-12 10:02:00,
2013-11-12 04:07:00,57.7,54.5,30.18,NNE,24,0.9,0.9,89,0.00,,,0.00,0.0,meteobridge,2013-11-12 10:07:00,
2013-11-12 04:12:00,57.6,54.3,30.18,NNE,28,0.0,0.0,89,0.00,,,0.00,0.0,meteobridge,2013-11-12 10:12:00,
2013-11-12 04:17:00,57.6,54.3,30.19,NNE,26,0.0,2.9,89,0.00,,,0.00,0.0,meteobridge,2013-11-12 10:17:00,
2013-11-12 04:23:00,57.4,54.1,30.19,NNE,20,0.0,0.9,89,0.00,,,0.00,0.0,meteobridge,2013-11-12 10:23:00,
2013-11-12 04:28:00,57.4,54.1,30.19,NNE,15,0.0,2.9,89,0.00,,,0.00,0.0,meteobridge,2013-11-12 10:28:00,
2013-11-12 04:33:00,57.4,54.1,30.19,NNE,22,0.9,2.9,89,0.00,,,0.00,0.0,meteobridge,2013-11-12 10:33:00,
2013-11-12 04:38:00,57.4,54.1,30.19,NNE,21,0.0,2.9,89,0.00,,,0.00,0.0,meteobridge,2013-11-12 10:38:00,
2013-11-12 04:43:00,57.4,54.1,30.19,NNE,21,0.0,2.0,89,0.00,,,0.00,0.0,meteobridge,2013-11-12 10:43:00,
2013-11-12 04:48:00,57.4,54.1,30.19,NNE,26,2.0,4.0,89,0.00,,,0.00,0.0,meteobridge,2013-11-12 10:48:00,
2013-11-12 04:53:00,57.4,54.1,30.19,NNE,22,4.0,6.0,89,0.00,,,0.00,0.0,meteobridge,2013-11-12 10:53:00,
2013-11-12 04:58:00,57.4,54.1,30.19,NNE,25,4.0,4.9,89,0.00,,,0.00,0.0,meteobridge,2013-11-12 10:58:00,
2013-11-12 05:03:00,57.4,54.1,30.20,NNE,23,2.9,4.9,89,0.00,,,0.00,0.0,meteobridge,2013-11-12 11:03:00,
2013-11-12 05:08:00,57.4,54.1,30.20,NNE,24,2.0,4.9,89,0.00,,,0.00,0.0,meteobridge,2013-11-12 11:08:00,
2013-11-12 05:13:00,57.4,54.1,30.20,NNE,21,4.0,6.0,89,0.00,,,0.00,0.0,meteobridge,2013-11-12 11:13:00,
2013-11-12 05:18:00,57.4,54.1,30.21,NNE,13,2.9,4.9,89,0.00,,,0.00,0.0,meteobridge,2013-11-12 11:18:00,
2013-11-12 05:23:00,57.4,54.1,30.21,NNE,16,2.0,4.9,89,0.00,,,0.00,0.0,meteobridge,2013-11-12 11:23:00,
2013-11-12 05:28:00,57.2,54.0,30.21,NNE,22,2.9,4.0,89,0.00,,,0.00,0.0,meteobridge,2013-11-12 11:28:00,
2013-11-12 05:33:00,57.0,53.8,30.22,NE,34,2.9,4.0,89,0.00,,,0.00,0.0,meteobridge,2013-11-12 11:33:00,
2013-11-12 05:38:00,57.0,54.1,30.22,NNE,30,6.0,6.0,90,0.00,,,0.00,0.0,meteobridge,2013-11-12 11:38:00,
2013-11-12 05:43:00,56.8,54.0,30.22,NNE,29,4.0,4.9,90,0.00,,,0.00,0.0,meteobridge,2013-11-12 11:43:00,
2013-11-12 05:48:00,56.8,54.0,30.22,NNE,12,4.9,6.9,90,0.00,,,0.00,0.0,meteobridge,2013-11-12 11:48:00,
2013-11-12 05:53:00,56.8,53.6,30.22,NNE,26,4.9,6.0,89,0.00,,,0.00,0.0,meteobridge,2013-11-12 11:53:00,
2013-11-12 05:58:00,56.8,53.6,30.22,NNE,22,2.0,6.0,89,0.00,,,0.00,0.0,meteobridge,2013-11-12 11:58:00,
2013-11-12 06:03:00,56.8,53.6,30.22,NNE,23,2.9,4.9,89,0.00,,,0.00,0.0,meteobridge,2013-11-12 12:03:00,
2013-11-12 06:09:00,56.8,53.6,30.22,NNE,22,4.0,4.9,89,0.00,,,0.00,0.0,meteobridge,2013-11-12 12:09:00,
2013-11-12 06:14:00,56.8,53.6,30.22,NNE,28,6.0,6.0,89,0.00,,,0.00,0.0,meteobridge,2013-11-12 12:14:00,
2013-11-12 06:19:00,56.7,53.4,30.23,NNE,22,4.0,8.9,89,0.00,,,0.00,0.0,meteobridge,2013-11-12 12:19:00,
2013-11-12 06:24:00,56.7,53.4,30.23,North,5,4.9,8.1,89,0.00,,,0.00,0.0,meteobridge,2013-11-12 12:24:00,
2013-11-12 06:29:00,56.7,53.4,30.23,North,9,4.9,8.1,89,0.00,,,0.00,0.0,meteobridge,2013-11-12 12:29:00,
2013-11-12 06:34:00,56.7,53.4,30.23,NNE,26,6.0,8.1,89,0.00,,,0.00,0.0,meteobridge,2013-11-12 12:34:00,
2013-11-12 06:39:00,56.8,53.2,30.23,NNE,15,4.9,6.9,88,0.00,,,0.00,0.0,meteobridge,2013-11-12 12:39:00,
2013-11-12 06:43:00,56.8,53.2,30.23,North,9,4.0,8.1,88,0.00,,,0.00,0.0,meteobridge,2013-11-12 12:43:00,
2013-11-12 06:49:00,57.0,53.4,30.23,NNE,24,6.0,6.9,88,0.00,,,0.00,0.0,meteobridge,2013-11-12 12:49:00,
2013-11-12 06:54:00,57.2,53.6,30.23,NNE,28,6.0,8.9,88,0.00,,,0.00,5.0,meteobridge,2013-11-12 12:54:00,
2013-11-12 06:58:00,57.4,53.6,30.23,NE,38,2.9,8.9,87,0.00,,,0.00,7.0,meteobridge,2013-11-12 12:58:00,
2013-11-12 07:04:00,57.4,53.6,30.24,NNE,23,4.9,4.9,87,0.00,,,0.00,9.0,meteobridge,2013-11-12 13:04:00,
2013-11-12 07:09:00,57.2,53.4,30.24,North,9,4.0,4.9,87,0.00,,,0.00,11.0,meteobridge,2013-11-12 13:09:00,
2013-11-12 07:14:00,57.2,53.4,30.24,NNE,23,2.9,4.9,87,0.00,,,0.00,12.0,meteobridge,2013-11-12 13:14:00,
2013-11-12 07:19:00,57.2,53.6,30.24,NNE,24,2.9,6.0,88,0.00,,,0.00,25.0,meteobridge,2013-11-12 13:19:00,
2013-11-12 07:24:00,57.4,53.8,30.24,NNE,24,4.0,6.0,88,0.00,,,0.00,39.0,meteobridge,2013-11-12 13:24:00,
2013-11-12 07:29:00,57.4,53.8,30.24,NNE,28,2.9,6.9,88,0.00,,,0.00,42.0,meteobridge,2013-11-12 13:29:00,
2013-11-12 07:34:00,57.6,53.8,30.25,NNE,19,2.0,6.0,87,0.00,,,0.00,42.0,meteobridge,2013-11-12 13:34:00,
2013-11-12 07:39:00,57.7,54.0,30.25,North,5,4.0,6.0,87,0.00,,,0.00,63.0,meteobridge,2013-11-12 13:39:00,
2013-11-12 07:44:00,58.1,54.3,30.25,NNE,15,4.9,6.9,87,0.00,,,0.00,83.0,meteobridge,2013-11-12 13:44:00,
2013-11-12 07:49:00,58.5,54.7,30.26,NNE,18,4.9,6.9,87,0.00,,,0.00,98.0,meteobridge,2013-11-12 13:49:00,
2013-11-12 07:54:00,58.6,54.5,30.26,NNE,18,4.9,10.1,86,0.00,,,0.00,107.0,meteobridge,2013-11-12 13:54:00,
2013-11-12 07:59:00,59.0,54.9,30.26,NNE,15,4.0,8.1,86,0.00,,,0.00,104.0,meteobridge,2013-11-12 13:59:00,
2013-11-12 08:04:00,59.2,54.7,30.27,NNE,24,6.0,6.0,85,0.00,,,0.00,105.0,meteobridge,2013-11-12 14:04:00,
2013-11-12 08:09:00,59.4,54.9,30.27,NNE,24,4.0,6.0,85,0.00,,,0.00,121.0,meteobridge,2013-11-12 14:09:00,
2013-11-12 08:14:00,59.5,55.0,30.27,NNE,14,4.0,6.0,85,0.00,,,0.00,109.0,meteobridge,2013-11-12 14:14:00,
2013-11-12 08:19:00,60.1,55.6,30.28,North,9,6.0,6.0,85,0.00,,,0.00,200.0,meteobridge,2013-11-12 14:19:00,
2013-11-12 08:24:00,60.4,55.6,30.28,North,5,2.9,6.0,84,0.00,,,0.00,330.0,meteobridge,2013-11-12 14:24:00,
2013-11-12 08:29:00,60.6,55.4,30.28,NNE,22,6.0,8.1,83,0.00,,,0.00,338.0,meteobridge,2013-11-12 14:29:00,
2013-11-12 08:34:00,61.3,56.5,30.28,NNE,22,2.9,4.9,84,0.00,,,0.00,346.0,meteobridge,2013-11-12 14:34:00,
2013-11-12 08:39:00,61.9,56.3,30.28,NNE,26,2.9,6.9,82,0.00,,,0.00,362.0,meteobridge,2013-11-12 14:39:00,
2013-11-12 08:44:00,62.1,55.8,30.29,North,5,4.0,8.9,80,0.00,,,0.00,387.0,meteobridge,2013-11-12 14:44:00,
2013-11-12 08:49:00,62.8,56.1,30.29,North,5,8.9,10.1,79,0.00,,,0.00,323.0,meteobridge,2013-11-12 14:49:00,
2013-11-12 08:54:00,63.0,55.6,30.29,North,5,4.9,12.1,77,0.00,,,0.00,401.0,meteobridge,2013-11-12 14:54:00,
2013-11-12 08:59:00,63.3,56.3,30.30,NNE,16,6.9,11.0,78,0.00,,,0.00,410.0,meteobridge,2013-11-12 14:59:00,
2013-11-12 09:04:00,63.1,55.4,30.30,NE,34,2.0,13.0,76,0.00,,,0.00,420.0,meteobridge,2013-11-12 15:04:00,
2013-11-12 09:09:00,63.3,55.6,30.30,NNE,20,11.0,12.1,76,0.00,,,0.00,434.0,meteobridge,2013-11-12 15:09:00,
2013-11-12 09:14:00,63.9,56.1,30.31,North,5,10.1,11.0,76,0.00,,,0.00,445.0,meteobridge,2013-11-12 15:14:00,
2013-11-12 09:19:00,64.6,56.8,30.31,NE,40,6.0,11.0,76,0.00,,,0.00,459.0,meteobridge,2013-11-12 15:19:00,
2013-11-12 09:24:00,64.9,56.8,30.31,North,5,6.9,10.1,75,0.00,,,0.00,476.0,meteobridge,2013-11-12 15:24:00,
2013-11-12 09:29:00,65.3,56.8,30.32,NNE,26,8.9,10.1,74,0.00,,,0.00,443.0,meteobridge,2013-11-12 15:29:00,
2013-11-12 09:34:00,65.5,57.0,30.32,NNE,19,8.1,11.0,74,0.00,,,0.00,568.0,meteobridge,2013-11-12 15:34:00,
2013-11-12 09:39:00,65.8,57.0,30.32,North,0,4.9,11.0,73,0.00,,,0.00,450.0,meteobridge,2013-11-12 15:39:00,
2013-11-12 09:45:00,66.2,56.8,30.32,North,5,8.1,14.1,72,0.00,,,0.00,494.0,meteobridge,2013-11-12 15:45:00,
2013-11-12 09:50:00,66.0,57.2,30.32,NNE,31,4.0,10.1,73,0.00,,,0.00,406.0,meteobridge,2013-11-12 15:50:00,
2013-11-12 09:55:00,66.4,57.4,30.32,NNE,22,4.0,6.0,73,0.00,,,0.00,411.0,meteobridge,2013-11-12 15:55:00,
2013-11-12 10:00:00,66.9,57.2,30.32,NNE,18,4.9,8.1,71,0.00,,,0.00,355.0,meteobridge,2013-11-12 16:00:00,
2013-11-12 10:05:00,67.5,57.7,30.32,NNE,22,8.1,12.1,71,0.00,,,0.00,373.0,meteobridge,2013-11-12 16:05:00,
2013-11-12 10:10:00,67.6,57.0,30.32,NNE,23,6.9,11.0,69,0.00,,,0.00,476.0,meteobridge,2013-11-12 16:10:00,
2013-11-12 10:15:00,68.4,57.7,30.32,NE,42,6.9,14.1,69,0.00,,,0.00,564.0,meteobridge,2013-11-12 16:15:00,
2013-11-12 10:20:00,68.9,57.0,30.32,North,9,8.9,14.1,66,0.00,,,0.00,789.0,meteobridge,2013-11-12 16:20:00,
2013-11-12 10:25:00,69.4,57.2,30.32,NNE,17,4.9,13.0,65,0.00,,,0.00,457.0,meteobridge,2013-11-12 16:25:00,
2013-11-12 10:30:00,69.3,56.1,30.33,NE,40,6.9,12.1,63,0.00,,,0.00,446.0,meteobridge,2013-11-12 16:30:00,
2013-11-12 10:35:00,69.1,55.9,30.33,North,5,13.0,16.1,63,0.00,,,0.00,598.0,meteobridge,2013-11-12 16:35:00,
2013-11-12 10:40:00,69.3,56.1,30.33,NNE,30,6.9,15.0,63,0.00,,,0.00,364.0,meteobridge,2013-11-12 16:40:00,
2013-11-12 10:45:00,70.2,57.4,30.34,NE,55,6.0,12.1,64,0.00,,,0.00,752.0,meteobridge,2013-11-12 16:45:00,
2013-11-12 10:50:00,70.3,57.2,30.34,NNE,12,8.1,14.1,63,0.00,,,0.00,534.0,meteobridge,2013-11-12 16:50:00,
2013-11-12 10:55:00,70.5,57.7,30.34,NNE,28,8.9,10.1,64,0.00,,,0.00,468.0,meteobridge,2013-11-12 16:55:00,
2013-11-12 11:00:00,70.3,57.6,30.33,NNE,19,4.9,10.1,64,0.00,,,0.00,489.0,meteobridge,2013-11-12 17:00:00,
2013-11-12 11:05:00,70.5,58.1,30.33,NE,34,4.9,13.0,65,0.00,,,0.00,519.0,meteobridge,2013-11-12 17:05:00,
2013-11-12 11:10:00,70.0,56.8,30.33,NE,34,6.0,8.9,63,0.00,,,0.00,413.0,meteobridge,2013-11-12 17:10:00,
2013-11-12 11:15:00,69.8,57.6,30.32,NNE,21,8.1,10.1,65,0.00,,,0.00,450.0,meteobridge,2013-11-12 17:15:00,
2013-11-12 11:20:00,70.3,57.6,30.32,NNE,32,4.0,8.9,64,0.00,,,0.00,436.0,meteobridge,2013-11-12 17:20:00,
2013-11-12 11:25:00,70.5,57.4,30.32,North,5,8.1,17.0,63,0.00,,,0.00,534.0,meteobridge,2013-11-12 17:25:00,
2013-11-12 11:30:00,70.5,56.5,30.32,North,355,19.0,19.9,61,0.00,,,0.00,492.0,meteobridge,2013-11-12 17:30:00,
2013-11-12 11:35:00,70.3,56.7,30.32,NNE,23,12.1,19.0,62,0.00,,,0.00,559.0,meteobridge,2013-11-12 17:35:00,
2013-11-12 11:40:00,70.2,56.5,30.32,NE,35,6.9,14.1,62,0.00,,,0.00,410.0,meteobridge,2013-11-12 17:40:00,
2013-11-12 11:45:00,70.2,57.0,30.31,NNE,20,6.0,16.1,63,0.00,,,0.00,445.0,meteobridge,2013-11-12 17:45:00,
2013-11-12 11:50:00,70.5,57.4,30.31,NNE,24,6.9,12.1,63,0.00,,,0.00,441.0,meteobridge,2013-11-12 17:50:00,
2013-11-12 11:55:00,70.9,57.7,30.31,NE,45,8.1,17.0,63,0.00,,,0.00,573.0,meteobridge,2013-11-12 17:55:00,
2013-11-12 12:00:00,71.1,57.4,30.31,NE,34,6.0,19.9,62,0.00,,,0.00,483.0,meteobridge,2013-11-12 18:00:00,
2013-11-12 12:05:00,71.2,57.6,30.31,NE,44,8.9,11.0,62,0.00,,,0.00,587.0,meteobridge,2013-11-12 18:05:00,
2013-11-12 12:10:00,71.4,57.7,30.31,North,5,15.0,17.0,62,0.00,,,0.00,527.0,meteobridge,2013-11-12 18:10:00,
2013-11-12 12:16:00,71.2,57.6,30.30,NNE,27,4.9,21.0,62,0.00,,,0.00,559.0,meteobridge,2013-11-12 18:16:00,
2013-11-12 12:21:00,71.1,56.8,30.30,NNE,28,15.0,15.0,61,0.00,,,0.00,610.0,meteobridge,2013-11-12 18:21:00,
2013-11-12 12:26:00,71.2,57.0,30.30,NNE,12,10.1,14.1,61,0.00,,,0.00,540.0,meteobridge,2013-11-12 18:26:00,
2013-11-12 12:31:00,71.2,57.9,30.30,North,0,12.1,17.0,63,0.00,,,0.00,485.0,meteobridge,2013-11-12 18:31:00,
2013-11-12 12:36:00,70.9,57.7,30.30,North,355,13.0,21.9,63,0.00,,,0.00,464.0,meteobridge,2013-11-12 18:36:00,
2013-11-12 12:41:00,70.5,57.7,30.30,NNE,26,12.1,21.9,64,0.00,,,0.00,436.0,meteobridge,2013-11-12 18:41:00,
2013-11-12 12:46:00,70.5,58.6,30.30,North,10,10.1,17.0,66,0.00,,,0.00,448.0,meteobridge,2013-11-12 18:46:00,
2013-11-12 12:51:00,70.0,59.0,30.30,North,5,17.9,19.0,68,0.00,,,0.00,459.0,meteobridge,2013-11-12 18:51:00,
2013-11-12 12:56:00,68.7,59.4,30.30,North,5,11.0,21.0,72,0.00,,,0.00,404.0,meteobridge,2013-11-12 18:56:00,
2013-11-12 13:01:00,68.4,59.4,30.30,North,0,17.0,19.9,73,0.00,,,0.00,454.0,meteobridge,2013-11-12 19:01:00,
2013-11-12 13:06:00,68.4,59.0,30.30,North,5,16.1,23.0,72,0.00,,,0.00,341.0,meteobridge,2013-11-12 19:06:00,
2013-11-12 13:11:00,68.2,59.2,30.30,North,355,12.1,17.9,73,0.00,,,0.00,285.0,meteobridge,2013-11-12 19:11:00,
2013-11-12 13:16:00,67.3,58.6,30.30,North,9,23.0,23.9,74,0.00,,,0.00,441.0,meteobridge,2013-11-12 19:16:00,
2013-11-12 13:21:00,66.6,58.5,30.30,North,5,23.0,25.1,75,0.00,,,0.00,258.0,meteobridge,2013-11-12 19:21:00,
2013-11-12 13:26:00,65.8,58.5,30.30,North,0,17.0,23.9,77,0.00,,,0.00,366.0,meteobridge,2013-11-12 19:26:00,
2013-11-12 13:31:00,65.5,58.1,30.30,North,9,19.0,19.0,77,0.00,,,0.00,334.0,meteobridge,2013-11-12 19:31:00,
2013-11-12 13:36:00,65.5,58.8,30.30,North,5,16.1,19.0,79,0.00,,,0.00,745.0,meteobridge,2013-11-12 19:36:00,
2013-11-12 13:41:00,64.9,57.6,30.30,NNW,340,21.0,21.9,77,0.00,,,0.00,464.0,meteobridge,2013-11-12 19:41:00,
2013-11-12 13:46:00,64.8,57.4,30.31,NNE,22,19.0,21.9,77,0.00,,,0.00,844.0,meteobridge,2013-11-12 19:46:00,
2013-11-12 13:51:00,63.5,56.1,30.31,North,355,23.0,23.0,77,0.00,,,0.00,297.0,meteobridge,2013-11-12 19:51:00,
2013-11-12 13:56:00,62.6,56.3,30.31,NNW,348,12.1,21.9,80,0.00,,,0.00,299.0,meteobridge,2013-11-12 19:56:00,
2013-11-12 14:01:00,62.1,55.8,30.31,North,5,17.9,27.1,80,0.00,,,0.00,223.0,meteobridge,2013-11-12 20:01:00,
2013-11-12 14:06:00,61.7,55.8,30.31,North,0,17.9,25.9,81,0.00,,,0.00,522.0,meteobridge,2013-11-12 20:06:00,
2013-11-12 14:11:00,62.2,56.3,30.31,NE,38,14.1,21.9,81,0.00,,,0.00,519.0,meteobridge,2013-11-12 20:11:00,
2013-11-12 14:16:00,62.6,56.3,30.32,North,355,16.1,23.0,80,0.00,,,0.00,587.0,meteobridge,2013-11-12 20:16:00,
2013-11-12 14:21:00,62.4,55.8,30.32,North,9,21.9,25.1,79,0.00,,,0.00,497.0,meteobridge,2013-11-12 20:21:00,
2013-11-12 14:26:00,61.9,55.2,30.32,North,355,21.0,23.0,79,0.00,,,0.00,585.0,meteobridge,2013-11-12 20:26:00,
2013-11-12 14:31:00,61.3,55.0,30.33,North,0,17.0,25.1,80,0.00,,,0.00,288.0,meteobridge,2013-11-12 20:31:00,
2013-11-12 14:36:00,61.3,54.9,30.33,NNE,12,15.0,19.9,79,0.00,,,0.00,246.0,meteobridge,2013-11-12 20:36:00,
2013-11-12 14:41:00,61.2,54.7,30.33,North,5,16.1,25.1,79,0.00,,,0.00,230.0,meteobridge,2013-11-12 20:41:00,
2013-11-12 14:46:00,61.0,54.5,30.34,North,5,12.1,19.0,79,0.00,,,0.00,188.0,meteobridge,2013-11-12 20:46:00,
2013-11-12 14:51:00,60.6,54.5,30.34,North,349,16.1,19.9,80,0.00,,,0.00,176.0,meteobridge,2013-11-12 20:51:00,
2013-11-12 14:56:00,60.8,54.3,30.34,North,5,16.1,23.9,79,0.00,,,0.00,496.0,meteobridge,2013-11-12 20:56:00,
2013-11-12 15:01:00,61.0,54.5,30.34,North,355,11.0,21.0,79,0.00,,,0.00,469.0,meteobridge,2013-11-12 21:01:00,
2013-11-12 15:06:00,60.6,54.1,30.34,North,0,17.9,21.9,79,0.00,,,0.00,489.0,meteobridge,2013-11-12 21:06:00,
2013-11-12 15:11:00,60.4,54.0,30.34,North,0,12.1,17.0,79,0.00,,,0.00,325.0,meteobridge,2013-11-12 21:11:00,
2013-11-12 15:16:00,60.4,54.0,30.34,North,355,21.0,21.0,79,0.00,,,0.00,404.0,meteobridge,2013-11-12 21:16:00,
2013-11-12 15:21:00,60.1,53.6,30.34,North,355,15.0,23.9,79,0.00,,,0.00,399.0,meteobridge,2013-11-12 21:21:00,
2013-11-12 15:26:00,60.3,53.4,30.34,North,5,17.0,19.0,78,0.00,,,0.00,376.0,meteobridge,2013-11-12 21:26:00,
2013-11-12 15:31:00,60.3,53.8,30.35,North,5,13.0,21.0,79,0.00,,,0.00,378.0,meteobridge,2013-11-12 21:31:00,
2013-11-12 15:36:00,60.1,53.2,30.35,NNE,15,16.1,21.9,78,0.00,,,0.00,345.0,meteobridge,2013-11-12 21:36:00,
2013-11-12 15:41:00,59.7,52.9,30.35,NNE,14,16.1,19.0,78,0.00,,,0.00,118.0,meteobridge,2013-11-12 21:41:00,
2013-11-12 15:46:00,59.5,53.1,30.35,North,0,8.1,17.0,79,0.00,,,0.00,345.0,meteobridge,2013-11-12 21:46:00,
2013-11-12 15:51:00,60.1,53.2,30.35,North,0,11.0,16.1,78,0.00,,,0.00,186.0,meteobridge,2013-11-12 21:51:00,
2013-11-12 15:56:00,59.5,52.7,30.35,NNE,19,14.1,19.9,78,0.00,,,0.00,135.0,meteobridge,2013-11-12 21:56:00,
2013-11-12 16:01:00,59.4,52.9,30.35,NE,40,11.0,21.0,79,0.00,,,0.00,121.0,meteobridge,2013-11-12 22:01:00,
2013-11-12 16:06:00,59.4,52.9,30.35,NNE,16,10.1,15.0,79,0.00,,,0.00,105.0,meteobridge,2013-11-12 22:06:00,
2013-11-12 16:12:00,59.2,52.7,30.35,North,5,8.1,21.0,79,0.00,,,0.00,91.0,meteobridge,2013-11-12 22:12:00,
2013-11-12 16:17:00,59.0,52.5,30.36,NE,41,6.9,19.0,79,0.00,,,0.00,81.0,meteobridge,2013-11-12 22:17:00,
2013-11-12 16:22:00,59.0,52.9,30.36,NNE,14,8.1,16.1,80,0.00,,,0.00,58.0,meteobridge,2013-11-12 22:22:00,
2013-11-12 16:27:00,59.2,53.1,30.36,North,5,10.1,13.0,80,0.00,,,0.00,65.0,meteobridge,2013-11-12 22:27:00,
2013-11-12 16:32:00,59.2,53.1,30.36,North,11,8.1,17.0,80,0.00,,,0.00,54.0,meteobridge,2013-11-12 22:32:00,
2013-11-12 16:37:00,59.0,52.5,30.36,NNE,25,17.0,19.0,79,0.00,,,0.00,53.0,meteobridge,2013-11-12 22:37:00,
2013-11-12 16:42:00,59.0,52.9,30.36,NE,36,4.0,15.0,80,0.00,,,0.00,46.0,meteobridge,2013-11-12 22:42:00,
2013-11-12 16:47:00,59.0,52.5,30.36,North,5,13.0,19.0,79,0.00,,,0.00,39.0,meteobridge,2013-11-12 22:47:00,
2013-11-12 16:52:00,59.0,52.9,30.36,North,355,17.0,17.9,80,0.00,,,0.00,28.0,meteobridge,2013-11-12 22:52:00,
2013-11-12 16:57:00,58.8,52.3,30.36,North,9,8.9,14.1,79,0.00,,,0.00,25.0,meteobridge,2013-11-12 22:57:00,
2013-11-12 17:02:00,58.8,52.3,30.36,NNE,28,17.9,19.0,79,0.00,,,0.00,16.0,meteobridge,2013-11-12 23:02:00,
2013-11-12 17:07:00,58.8,52.3,30.36,NNE,16,8.9,15.0,79,0.00,,,0.00,12.0,meteobridge,2013-11-12 23:07:00,
2013-11-12 17:12:00,58.8,52.7,30.36,North,355,15.0,17.9,80,0.00,,,0.00,11.0,meteobridge,2013-11-12 23:12:00,
2013-11-12 17:17:00,58.8,52.7,30.36,North,355,12.1,13.0,80,0.00,,,0.00,9.0,meteobridge,2013-11-12 23:17:00,
2013-11-12 17:22:00,59.0,52.9,30.36,NNE,26,13.0,19.0,80,0.00,,,0.00,5.0,meteobridge,2013-11-12 23:22:00,
2013-11-12 17:27:00,59.0,52.9,30.36,North,10,13.0,17.0,80,0.00,,,0.00,0.0,meteobridge,2013-11-12 23:27:00,
2013-11-12 17:32:00,58.8,52.7,30.36,NNE,22,8.9,16.1,80,0.00,,,0.00,0.0,meteobridge,2013-11-12 23:32:00,
2013-11-12 17:37:00,58.8,52.3,30.36,North,355,12.1,17.0,79,0.00,,,0.00,0.0,meteobridge,2013-11-12 23:37:00,
2013-11-12 17:42:00,58.8,52.7,30.36,North,11,10.1,16.1,80,0.00,,,0.00,0.0,meteobridge,2013-11-12 23:42:00,
2013-11-12 17:47:00,58.8,52.3,30.37,North,5,12.1,19.9,79,0.00,,,0.00,0.0,meteobridge,2013-11-12 23:47:00,
2013-11-12 17:52:00,58.6,51.8,30.37,NNE,28,8.1,21.9,78,0.00,,,0.00,0.0,meteobridge,2013-11-12 23:52:00,
2013-11-12 17:57:00,58.6,52.2,30.37,North,10,14.1,19.0,79,0.00,,,0.00,0.0,meteobridge,2013-11-12 23:57:00,
2013-11-12 18:02:00,58.6,52.2,30.38,NNE,17,14.1,16.1,79,0.00,,,0.00,0.0,meteobridge,2013-11-13 00:02:00,
2013-11-12 18:07:00,58.5,51.6,30.38,NNE,17,11.0,17.9,78,0.00,,,0.00,0.0,meteobridge,2013-11-13 00:07:00,
2013-11-12 18:12:00,58.5,51.6,30.38,North,9,11.0,17.0,78,0.00,,,0.00,0.0,meteobridge,2013-11-13 00:12:00,
2013-11-12 18:17:00,58.1,50.9,30.39,NNE,15,13.0,19.0,77,0.00,,,0.00,0.0,meteobridge,2013-11-13 00:17:00,
2013-11-12 18:22:00,57.7,50.5,30.39,NNE,27,13.0,17.0,77,0.00,,,0.00,0.0,meteobridge,2013-11-13 00:22:00,
2013-11-12 18:27:00,57.6,50.4,30.39,NNE,28,10.1,19.9,77,0.00,,,0.00,0.0,meteobridge,2013-11-13 00:27:00,
2013-11-12 18:33:00,57.4,50.2,30.40,NNE,26,15.0,25.1,77,0.00,,,0.00,0.0,meteobridge,2013-11-13 00:33:00,
2013-11-12 18:38:00,57.0,49.8,30.40,NNE,27,12.1,15.0,77,0.00,,,0.00,0.0,meteobridge,2013-11-13 00:38:00,
2013-11-12 18:43:00,57.0,49.8,30.40,NNE,13,13.0,16.1,77,0.00,,,0.00,0.0,meteobridge,2013-11-13 00:43:00,
2013-11-12 18:48:00,56.8,49.6,30.41,NNE,19,17.9,19.9,77,0.00,,,0.00,0.0,meteobridge,2013-11-13 00:48:00,
2013-11-12 18:53:00,56.8,49.6,30.41,North,5,17.0,19.9,77,0.00,,,0.00,0.0,meteobridge,2013-11-13 00:53:00,
2013-11-12 18:58:00,56.8,49.6,30.41,NNE,13,11.0,21.0,77,0.00,,,0.00,0.0,meteobridge,2013-11-13 00:58:00,
2013-11-12 19:03:00,56.8,50.0,30.42,NNE,20,4.9,16.1,78,0.00,,,0.00,0.0,meteobridge,2013-11-13 01:03:00,
2013-11-12 19:08:00,56.7,49.8,30.42,NNE,14,16.1,19.0,78,0.00,,,0.00,0.0,meteobridge,2013-11-13 01:08:00,
2013-11-12 19:13:00,56.7,49.8,30.42,NNE,19,15.0,17.0,78,0.00,,,0.00,0.0,meteobridge,2013-11-13 01:13:00,
2013-11-12 19:18:00,56.7,49.8,30.43,NNE,27,12.1,17.0,78,0.00,,,0.00,0.0,meteobridge,2013-11-13 01:18:00,
2013-11-12 19:23:00,56.5,49.3,30.43,NNE,32,12.1,21.9,77,0.00,,,0.00,0.0,meteobridge,2013-11-13 01:23:00,
2013-11-12 19:28:00,56.5,49.6,30.43,NNE,19,12.1,16.1,78,0.00,,,0.00,0.0,meteobridge,2013-11-13 01:28:00,
2013-11-12 19:33:00,56.1,48.9,30.43,NNE,24,14.1,17.9,77,0.00,,,0.00,0.0,meteobridge,2013-11-13 01:33:00,
2013-11-12 19:38:00,56.3,49.1,30.43,NNE,19,12.1,14.1,77,0.00,,,0.00,0.0,meteobridge,2013-11-13 01:38:00,
2013-11-12 19:43:00,56.3,48.9,30.43,North,351,11.0,19.9,76,0.00,,,0.00,0.0,meteobridge,2013-11-13 01:43:00,
2013-11-12 19:48:00,56.1,48.9,30.45,North,0,17.9,19.0,77,0.00,,,0.00,0.0,meteobridge,2013-11-13 01:48:00,
2013-11-12 19:53:00,55.9,48.9,30.45,NE,36,8.9,17.9,77,0.00,,,0.00,0.0,meteobridge,2013-11-13 01:53:00,
2013-11-12 19:58:00,55.9,48.9,30.45,NNE,18,12.1,23.0,77,0.00,,,0.00,0.0,meteobridge,2013-11-13 01:58:00,
2013-11-12 20:03:00,55.8,48.7,30.45,NNE,23,11.0,19.0,77,0.00,,,0.00,0.0,meteobridge,2013-11-13 02:03:00,
2013-11-12 20:08:00,55.8,48.7,30.45,North,5,14.1,16.1,77,0.00,,,0.00,0.0,meteobridge,2013-11-13 02:08:00,
2013-11-12 20:13:00,55.6,48.6,30.45,NNE,28,15.0,15.0,77,0.00,,,0.00,0.0,meteobridge,2013-11-13 02:13:00,
2013-11-12 20:18:00,55.6,48.6,30.45,NNE,32,8.9,17.9,77,0.00,,,0.00,0.0,meteobridge,2013-11-13 02:18:00,
2013-11-12 20:23:00,55.6,48.9,30.45,North,0,13.0,14.1,78,0.00,,,0.00,0.0,meteobridge,2013-11-13 02:23:00,
2013-11-12 20:28:00,55.6,48.6,30.45,North,5,10.1,17.0,77,0.00,,,0.00,0.0,meteobridge,2013-11-13 02:28:00,
2013-11-12 20:33:00,55.6,48.6,30.46,NNE,24,6.9,19.0,77,0.00,,,0.00,0.0,meteobridge,2013-11-13 02:33:00,
2013-11-12 20:38:00,55.6,48.6,30.46,NNE,17,14.1,17.0,77,0.00,,,0.00,0.0,meteobridge,2013-11-13 02:38:00,
2013-11-12 20:43:00,55.6,48.6,30.46,North,5,11.0,16.1,77,0.00,,,0.00,0.0,meteobridge,2013-11-13 02:43:00,
2013-11-12 20:48:00,55.6,48.6,30.47,NNE,22,11.0,11.0,77,0.00,,,0.00,0.0,meteobridge,2013-11-13 02:48:00,
2013-11-12 20:53:00,55.4,48.4,30.47,North,5,6.9,11.0,77,0.00,,,0.00,0.0,meteobridge,2013-11-13 02:53:00,
2013-11-12 20:58:00,55.0,48.0,30.47,NNE,19,8.1,16.1,77,0.00,,,0.00,0.0,meteobridge,2013-11-13 02:58:00,
2013-11-12 21:03:00,54.9,47.8,30.47,NNE,13,11.0,13.0,77,0.00,,,0.00,0.0,meteobridge,2013-11-13 03:03:00,
2013-11-12 21:08:00,54.7,47.7,30.47,NNE,13,8.9,10.1,77,0.00,,,0.00,0.0,meteobridge,2013-11-13 03:08:00,
2013-11-12 21:13:00,54.3,47.7,30.47,ENE,61,10.1,13.0,78,0.00,,,0.00,0.0,meteobridge,2013-11-13 03:13:00,
2013-11-12 21:19:00,54.3,48.0,30.48,NNE,30,8.1,13.0,79,0.00,,,0.00,0.0,meteobridge,2013-11-13 03:19:00,
2013-11-12 21:24:00,54.5,47.8,30.48,NNE,26,13.0,15.0,78,0.00,,,0.00,0.0,meteobridge,2013-11-13 03:24:00,
2013-11-12 21:29:00,54.5,48.2,30.48,North,11,12.1,17.0,79,0.00,,,0.00,0.0,meteobridge,2013-11-13 03:29:00,
2013-11-12 21:34:00,54.5,48.2,30.48,North,0,10.1,15.0,79,0.00,,,0.00,0.0,meteobridge,2013-11-13 03:34:00,
2013-11-12 21:39:00,54.5,48.2,30.48,North,355,10.1,15.0,79,0.00,,,0.00,0.0,meteobridge,2013-11-13 03:39:00,
2013-11-12 21:44:00,54.5,48.2,30.48,NNE,15,10.1,16.1,79,0.00,,,0.00,0.0,meteobridge,2013-11-13 03:44:00,
2013-11-12 21:49:00,54.5,48.2,30.49,NE,37,4.0,15.0,79,0.00,,,0.00,0.0,meteobridge,2013-11-13 03:49:00,
2013-11-12 21:54:00,54.5,48.2,30.49,NE,37,4.9,10.1,79,0.00,,,0.00,0.0,meteobridge,2013-11-13 03:54:00,
2013-11-12 21:59:00,54.3,48.0,30.49,NNE,21,8.9,15.0,79,0.00,,,0.00,0.0,meteobridge,2013-11-13 03:59:00,
2013-11-12 22:04:00,54.3,48.0,30.49,NNE,30,10.1,19.0,79,0.00,,,0.00,0.0,meteobridge,2013-11-13 04:04:00,
2013-11-12 22:09:00,54.3,47.7,30.49,NNE,20,6.9,10.1,78,0.00,,,0.00,0.0,meteobridge,2013-11-13 04:09:00,
2013-11-12 22:14:00,54.3,47.7,30.49,NNE,22,11.0,12.1,78,0.00,,,0.00,0.0,meteobridge,2013-11-13 04:14:00,
2013-11-12 22:19:00,54.3,47.7,30.49,North,9,11.0,16.1,78,0.00,,,0.00,0.0,meteobridge,2013-11-13 04:19:00,
2013-11-12 22:24:00,54.0,47.3,30.49,NNE,24,14.1,14.1,78,0.00,,,0.00,0.0,meteobridge,2013-11-13 04:24:00,
2013-11-12 22:29:00,53.8,47.1,30.49,NNE,17,6.9,16.1,78,0.00,,,0.00,0.0,meteobridge,2013-11-13 04:29:00,
2013-11-12 22:34:00,53.6,46.9,30.49,NNE,30,8.9,11.0,78,0.00,,,0.00,0.0,meteobridge,2013-11-13 04:34:00,
2013-11-12 22:39:00,53.4,46.8,30.49,NNE,16,13.0,17.0,78,0.00,,,0.00,0.0,meteobridge,2013-11-13 04:39:00,
2013-11-12 22:44:00,53.2,46.6,30.49,NNE,24,11.0,13.0,78,0.00,,,0.00,0.0,meteobridge,2013-11-13 04:44:00,
2013-11-12 22:49:00,52.9,46.2,30.49,NNE,17,6.0,15.0,78,0.00,,,0.00,0.0,meteobridge,2013-11-13 04:49:00,
2013-11-12 22:54:00,52.9,46.2,30.49,North,0,11.0,15.0,78,0.00,,,0.00,0.0,meteobridge,2013-11-13 04:54:00,
2013-11-12 22:59:00,52.5,45.9,30.49,North,5,8.9,11.0,78,0.00,,,0.00,0.0,meteobridge,2013-11-13 04:59:00,
2013-11-12 23:01:00,52.5,45.9,30.49,NNE,28,6.0,12.1,78,0.00,,,0.00,0.0,meteobridge,2013-11-13 05:01:00,
2013-11-12 23:02:00,52.5,46.2,30.49,NNE,12,11.0,12.1,79,0.00,,,0.00,0.0,meteobridge,2013-11-13 05:02:00,
2013-11-12 23:07:00,52.3,46.0,30.49,NNE,17,8.1,12.1,79,0.00,,,0.00,0.0,meteobridge,2013-11-13 05:07:00,
2013-11-12 23:12:00,52.2,45.9,30.49,NNE,22,6.9,14.1,79,0.00,,,0.00,0.0,meteobridge,2013-11-13 05:12:00,
2013-11-12 23:17:00,52.0,45.7,30.49,NNE,24,8.9,12.1,79,0.00,,,0.00,0.0,meteobridge,2013-11-13 05:17:00,
2013-11-12 23:22:00,51.8,45.5,30.49,North,0,11.0,11.0,79,0.00,,,0.00,0.0,meteobridge,2013-11-13 05:22:00,
2013-11-12 23:27:00,51.8,45.5,30.49,North,5,11.0,11.0,79,0.00,,,0.00,0.0,meteobridge,2013-11-13 05:27:00,
2013-11-12 23:32:00,51.4,45.5,30.49,North,5,8.9,10.1,80,0.00,,,0.00,0.0,meteobridge,2013-11-13 05:32:00,
2013-11-12 23:37:00,51.4,45.5,30.49,North,0,6.0,10.1,80,0.00,,,0.00,0.0,meteobridge,2013-11-13 05:37:00,
2013-11-12 23:42:00,51.3,45.3,30.49,NNE,15,4.0,10.1,80,0.00,,,0.00,0.0,meteobridge,2013-11-13 05:42:00,
2013-11-12 23:47:00,51.1,45.1,30.49,NNE,26,6.0,8.9,80,0.00,,,0.00,0.0,meteobridge,2013-11-13 05:47:00,
2013-11-12 23:52:00,51.1,45.1,30.49,NE,38,4.9,8.9,80,0.00,,,0.00,0.0,meteobridge,2013-11-13 05:52:00,
2013-11-12 23:57:00,50.9,45.0,30.49,NE,34,2.9,10.1,80,0.00,,,0.00,0.0,meteobridge,2013-11-13 05:57:00,